Regional Weather Roundup
Issued by NWS

Home | Current Version | Previous Version | Graphics & Text | Print | Product List | Glossary On
Versions: 1 2 3 4 5 6 7 8 9 10 11 12 13 14 15 16 17 18 19 20 21 22 23 24 25 26 27 28 29 30 31 32 33 34 35 36 37 38 39 40 41 42 43 44 45 46 47 48 49
000
ASUS45 KSLC 271010
RWRUT

UTAH REGIONAL WEATHER ROUNDUP
NATIONAL WEATHER SERVICE SALT LAKE CITY UT
400 AM MDT WED AUG 27 2014

UTZ001>011-023>025-271100-

NORTHERN UTAH

CITY           SKY/WX    TMP DP  RH WIND       PRES   REMARKS
HILL AFB         N/A     57  49  76 SE5       30.20R
LOGAN          MOCLDY    56  52  86 CALM      30.18R
OGDEN          CLOUDY    59  51  75 S7        30.18R
PROVO AIRPORT  CLOUDY    59  54  82 SE5       30.21R
SALT LAKE CITY MOCLDY    61  52  72 E5        30.17R
VERNAL         CLOUDY    59  54  83 CALM      30.23S
WENDOVER       CLOUDY    63  48  59 SW3       30.18R
HEBER CITY     MOCLDY    54  48  82 SE3       30.22S
WEST JORDAN    CLOUDY    61  57  88 W3        30.20

$$

UTZ012>022-026-027-271100-

SOUTHERN UTAH

CITY           SKY/WX    TMP DP  RH WIND       PRES   REMARKS
BRYCE CANYON     N/A     42  40  92 W8        30.34F
CEDAR CITY       N/A     52  45  77 S3        30.23S
MILFORD          N/A     53  51  93 NW3       30.21R
MOAB/CYNLANDS  CLOUDY    63  52  67 SE5       30.18S
PRICE          CLOUDY    57  48  72 CALM      30.24S
ST GEORGE        N/A     64  52  63 E10       30.15F
KANAB            N/A     52  52 100 NW3       30.26F

$$

REGIONAL REPORTS     COLORADO/ARIZONA

CITY           SKY/WX    TMP DP  RH WIND       PRES   REMARKS
CRAIG, CO      RAIN      55  52  89 SW8       30.28R FOG
GRAND JUNCTION CLOUDY    57  55  93 E9        30.20F
RIFLE          CLOUDY    55  54  96 CALM      30.25S
MONTROSE       CLOUDY    55  54  96 W5        30.28S FOG
CORTEZ         CLOUDY    52  52 100 S5        30.31S FOG
PAGE, AZ         N/A     59  50  72 SE5       30.22F
GRAND CANYON     N/A    N/A N/A N/A MISG        N/A
KINGMAN          N/A     67  57  70 SE8       30.09S
FLAGSTAFF      CLOUDY    49  47  93 CALM      30.34R

$$

REGIONAL REPORTS    NEVADA/IDAHO/WYOMING

CITY           SKY/WX    TMP DP  RH WIND       PRES   REMARKS
LAS VEGAS, NV    N/A     78  45  30 NE3       29.99R
ELY              N/A     40  39  97 S7        30.29S
ELKO             N/A     49  43  80 CALM      30.22R
POCATELLO, ID  CLEAR     51  49  92 SE5       30.18S
BURLEY           N/A     54  48  80 SW5       30.15S
EVANSTON, WY   CLOUDY    50  44  80 CALM      30.29R
ROCK SPRINGS   LGT RAIN  52  45  77 E6        30.29R

$$



USA.gov is the U.S. government's official web portal to all federal, state and local government web resources and services.